Preview of NWS' New Version of Forecast
This preview is not operational and should not be used for support decisions.

Regional Weather Roundup (RWR)

Issued by National Weather Service (NWS)

                            
000
ASUS44 KJAN 161410
RWRMS 

MISSISSIPPI HOURLY WEATHER ROUNDUP
NATIONAL WEATHER SERVICE JACKSON MS
800 AM CST SAT FEB 16 2019

NOTE: "FAIR: INDICATES FEW OR NO CLOUDS BELOW 12,000 FEET WITH NO
SIGNIFICANT WEATHER AND/OR OBSTRUCTIONS TO VISIBILITY.

MSZ001>002-007>008-010>013-018>021-025>028-034>036-161500-
NORTHWEST MISSISSIPPI
  
CITY           SKY/WX    TMP DP  RH WIND       PRES   REMARKS
BATESVILLE     CLOUDY    36  34  93 N8        29.95R FOG     WCI  29  
CLARKSDALE     CLOUDY    34  34 100 N14       29.99R WCI  24          
CLEVELAND      CLOUDY    33  33 100 N12       29.97R FOG     WCI  24  
GREENWOOD      CLOUDY    39  37  92 N7        29.96R WCI  34          
GREENVILLE     CLOUDY    36  33  89 N12       29.96S WCI  28          
OLIVE BRANCH   CLOUDY    32  30  93 N12       29.98R WCI  23          
OXFORD         CLOUDY    34  32  93 N9        29.96R WCI  26          
TUNICA           N/A     30  28  93 N14       30.00R WCI  20          
WINONA         CLOUDY    38  38 100 NE7       29.93R FOG     WCI  32  
$$

MSZ003>006-009-014>017-022>024-029>033-037>039-161500-
NORTHEAST MISSISSIPPI
  
CITY           SKY/WX    TMP DP  RH WIND       PRES   REMARKS
ABERDEEN       CLOUDY    39  39 100 N10G16    29.93R WCI  32          
COLUMBUS AFB   CLOUDY    41  38  88 N9        29.90R                  
CORINTH        CLOUDY    36  34  93 N8G15     29.95R WCI  29          
GOLDN TRIANGLE CLOUDY    40  38  93 N9        29.92R WCI  34          
STARKVILLE     CLOUDY    39  37  93 N3        29.92R                  
TUPELO         CLOUDY    38  35  89 N14       29.93R WCI  30          
$$

MSZ040-058-161500-
CENTRAL MISSISSIPPI
  
CITY           SKY/WX    TMP DP  RH WIND       PRES   REMARKS
JACKSON INTL   CLOUDY    42  39  89 NW8       29.90R                  
JACKSON HAWKNS CLOUDY    42  40  92 N3        29.91R                  
MADISON        CLOUDY    39  39 100 N5        29.91R                  
MERIDIAN KEY   CLOUDY    54  51  90 NW7       29.86R                  
MERIDIAN NAS   CLOUDY    50  47  89 N7        29.88R                  
RAYMOND          N/A     41  41 100 N7        29.92R                  
VICKSBURG VKS  CLOUDY    41  39  93 N12       29.94R                  
$$

MSZ059>079-161500-
SOUTH MISSISSIPPI
  
CITY           SKY/WX    TMP DP  RH WIND       PRES   REMARKS
HATTIESBURG    CLOUDY    61  57  87 NW7       29.87R                  
LAUREL         CLOUDY    56  54  93 N6        29.87R                  
MCCOMB         CLOUDY    54  49  83 N10       29.86R                  
NATCHEZ        CLOUDY    43  42  97 N9        29.91R                  
PINE BELT      CLOUDY    56  54  93 N8        29.88R                  
$$

MSZ080>082-161500-
COASTAL MISSISSIPPI
  
CITY           SKY/WX    TMP DP  RH WIND       PRES   REMARKS
BAY ST LOUIS   FOG       64  64 100 SW5       29.85R VSB 1            
BILOXI         CLOUDY    63  63 100 SW6       29.83R FOG              
PASCAGOULA     CLOUDY    66  63  90 W6        29.85R FOG              
GULFPORT       CLOUDY    65  64  97 CALM      29.83R FOG              
$$

LAZ007>009-015>016-023>026-161500-
NORTHEAST LOUISIANA
  
CITY           SKY/WX    TMP DP  RH WIND       PRES   REMARKS
BASTROP        CLOUDY    37  37  97 N5        29.97R WCI  34          
TALLULAH/VBURG CLOUDY    40  36  86 N14       29.95R WCI  32          
VIDALIA        CLOUDY    45  41  87 N7        29.91R                  
$$